Decorah, Iowa, United States (52101)
Lat: 43.30N, Lon: 91.79W
Wx Zone: IAZ010
Local Info
Past Weather Observations for Today

NOTE: This archive is for the closest National Weather Service station to Decorah. Information may differ from the station used for current weather conditions.

Click here for Long-term Archive

Time Weather Temperature Dewpoint Humidity Pressure Winds Precip Visibility
17:55
Clear
64°F / 18°C 50°F / 10°C 60% 30.21 in
(1023 mb)
SSE 5.8 mph
(SSE 9 kph)
- 10SM
17:35
Clear
64°F / 18°C 50°F / 10°C 60% 30.21 in
(1023 mb)
SSE 5.8 mph
(SSE 9 kph)
- 10SM
17:15
Clear
66°F / 19°C 50°F / 10°C 56% 30.21 in
(1023 mb)
SSE 5.8 mph
(SSE 9 kph)
- 10SM
16:55
Clear
66°F / 19°C 50°F / 10°C 56% 30.21 in
(1023 mb)
SSE 5.8 mph
(SSE 9 kph)
- 10SM
16:35
Clear
68°F / 20°C 48°F / 9°C 49% 30.21 in
(1023 mb)
S 5.8 mph
(S 9 kph)
- 10SM
16:15
Clear
68°F / 20°C 48°F / 9°C 49% 30.21 in
(1023 mb)
Variable 5.8 mph
(Variable 9 kph)
- 10SM
15:55
Clear
72°F / 22°C 48°F / 9°C 44% 30.21 in
(1023 mb)
S 6.9 mph
(S 11 kph)
- 10SM
15:35
Clear
72°F / 22°C 48°F / 9°C 44% 30.21 in
(1023 mb)
S 11.5 mph
(S 19 kph)
- 10SM
15:15
Clear
72°F / 22°C 46°F / 8°C 41% 30.21 in
(1023 mb)
S 9.2 mph
(S 15 kph)
- 10SM
14:55
Clear
70°F / 21°C 48°F / 9°C 46% 30.21 in
(1023 mb)
S 6.9 mph
(S 11 kph)
- 10SM
14:35
Clear
72°F / 22°C 50°F / 10°C 47% 30.21 in
(1023 mb)
Variable 6.9 mph
(Variable 11 kph)
- 10SM
14:15
Clear
72°F / 22°C 50°F / 10°C 47% 30.21 in
(1023 mb)
S 9.2 mph
(S 15 kph)
- 10SM
13:55
Clear
72°F / 22°C 50°F / 10°C 47% 30.24 in
(1024 mb)
S 10.4 mph
(S 17 kph)
- 10SM
13:35
Clear
72°F / 22°C 50°F / 10°C 47% 30.24 in
(1024 mb)
S 8.1 mph
(S 13 kph)
- 9SM
13:15
Clear
70°F / 21°C 50°F / 10°C 50% 30.24 in
(1024 mb)
SW 9.2 mph
(SW 15 kph)
- 10SM
12:55
Clear
70°F / 21°C 50°F / 10°C 50% 30.27 in
(1025 mb)
Variable 8.1 mph
(Variable 13 kph)
- 10SM
12:35
Clear
70°F / 21°C 50°F / 10°C 50% 30.27 in
(1025 mb)
SW 9.2 mph
(SW 15 kph)
- 10SM
12:15
Clear
70°F / 21°C 50°F / 10°C 50% 30.27 in
(1025 mb)
S 11.5 mph
(S 19 kph)
- 10SM
11:55
Clear
70°F / 21°C 50°F / 10°C 50% 30.27 in
(1025 mb)
S 10.4 mph
(S 17 kph)
- 10SM
11:35
Clear
68°F / 20°C 50°F / 10°C 53% 30.27 in
(1025 mb)
S 12.7 mph
(S 20 kph)
- 10SM
11:15
Clear
68°F / 20°C 52°F / 11°C 56% 30.27 in
(1025 mb)
S 9.2 mph
(S 15 kph)
- 10SM
10:55
Clear
68°F / 20°C 52°F / 11°C 56% 30.27 in
(1025 mb)
S 8.1 mph
(S 13 kph)
- 10SM
10:35
Clear
68°F / 20°C 52°F / 11°C 56% 30.3 in
(1026 mb)
S 6.9 mph
(S 11 kph)
- 10SM
10:15
Clear
66°F / 19°C 52°F / 11°C 60% 30.3 in
(1026 mb)
S 10.4 mph
(S 17 kph)
- 10SM
09:55
Clear
66°F / 19°C 52°F / 11°C 60% 30.3 in
(1026 mb)
Variable 5.8 mph
(Variable 9 kph)
- 10SM
09:35
Clear
64°F / 18°C 52°F / 11°C 64% 30.3 in
(1026 mb)
SSE 8.1 mph
(SSE 13 kph)
- 10SM
09:15
Clear
64°F / 18°C 52°F / 11°C 64% 30.3 in
(1026 mb)
Variable 4.6 mph
(Variable 7 kph)
- 10SM
08:55
Clear
63°F / 17°C 52°F / 11°C 68% 30.3 in
(1026 mb)
S 5.8 mph
(S 9 kph)
- 10SM
08:35
Clear
61°F / 16°C 52°F / 11°C 72% 30.3 in
(1026 mb)
Calm -
08:15
Clear
59°F / 15°C 52°F / 11°C 77% 30.3 in
(1026 mb)
SSE 5.8 mph
(SSE 9 kph)
- 10SM
07:55
Clear
57°F / 14°C 50°F / 10°C 77% 30.27 in
(1025 mb)
SSE 6.9 mph
(SSE 11 kph)
- 10SM
07:35
Clear
54°F / 12°C 50°F / 10°C 88% 30.27 in
(1025 mb)
S 4.6 mph
(S 7 kph)
- 10SM
07:15
Clear
54°F / 12°C 48°F / 9°C 82% 30.27 in
(1025 mb)
Calm - 10SM
06:55
Clear
50°F / 10°C 48°F / 9°C 94% 30.27 in
(1025 mb)
Calm - 10SM
06:35
Clear
50°F / 10°C 46°F / 8°C 88% 30.27 in
(1025 mb)
S 3.5 mph
(S 6 kph)
- 10SM
06:15
Clear
50°F / 10°C 46°F / 8°C 88% 30.27 in
(1025 mb)
Calm - 10SM
05:55
Clear
50°F / 10°C 46°F / 8°C 88% 30.27 in
(1025 mb)
Calm - 10SM
05:35
Clear
50°F / 10°C 46°F / 8°C 88% 30.24 in
(1024 mb)
Calm - 10SM
05:15
Clear
48°F / 9°C 46°F / 8°C 94% 30.27 in
(1025 mb)
SSE 3.5 mph
(SSE 6 kph)
- 10SM
04:55
Clear
50°F / 10°C 46°F / 8°C 88% 30.24 in
(1024 mb)
Calm - 10SM
04:35
Clear
50°F / 10°C 46°F / 8°C 88% 30.24 in
(1024 mb)
Calm - 10SM
04:15
Clear
50°F / 10°C 46°F / 8°C 88% 30.24 in
(1024 mb)
Calm - 10SM
03:55
Clear
50°F / 10°C 46°F / 8°C 88% 30.24 in
(1024 mb)
Calm - 10SM
03:35
Clear
52°F / 11°C 46°F / 8°C 82% 30.24 in
(1024 mb)
Calm - 10SM
03:15
Clear
50°F / 10°C 46°F / 8°C 88% 30.24 in
(1024 mb)
Calm - 10SM
02:55
Clear
52°F / 11°C 46°F / 8°C 82% 30.24 in
(1024 mb)
Calm - 10SM
02:35
Partly Cloudy
50°F / 10°C 46°F / 8°C 88% 30.24 in
(1024 mb)
Calm - 10SM
02:15
Clear
52°F / 11°C 46°F / 8°C 82% 30.24 in
(1024 mb)
Calm - 10SM
01:55
Clear
52°F / 11°C 46°F / 8°C 82% 30.24 in
(1024 mb)
Calm - 10SM
01:35
Clear
52°F / 11°C 46°F / 8°C 82% 30.24 in
(1024 mb)
Calm - 10SM
01:15
Partly Cloudy
52°F / 11°C 48°F / 9°C 88% 30.24 in
(1024 mb)
Calm - 10SM
00:55
Clear
52°F / 11°C 48°F / 9°C 88% 30.24 in
(1024 mb)
S 3.5 mph
(S 6 kph)
- 10SM
00:35
Clear
52°F / 11°C 48°F / 9°C 88% 30.24 in
(1024 mb)
Calm - 10SM
00:15
Clear
54°F / 12°C 48°F / 9°C 82% 30.24 in
(1024 mb)
Calm - 10SM
Time Weather Temperature Dewpoint Humidity Pressure Winds Precip Visibility


Weather for websites

WeatherForYou.com, LLC is not responsible for any damages or problems caused by this service. Current weather conditions are obtained from the closest station including government and personal stations which may have varying degrees of accuracy. Weather forecasts are derived from the NOAA NDFD. Like all things, this site belongs to Jesus Christ... He just trusts me to maintain it. If you have any questions or comments email webmaster@weatherforyou.com

Copyright © 2014, WeatherForYou.com LLC. All rights reserved.